Time,TemperatureF,DewpointF,PressureIn,WindDirection,WindDirectionDegrees,WindSpeedMPH,WindSpeedGustMPH,Humidity,HourlyPrecipIn,Conditions,Clouds,dailyrainin,SolarRadiationWatts/m^2,SoftwareType,DateUTC
2013-01-06 15:12:00,26.0,7.0,-100.00,SW,222,2.0,6.0,44,0.00,,,0.00,287.000000,,2013-01-06 21:12:00,
2013-01-06 15:43:00,26.0,5.0,-100.00,SSW,206,4.0,8.0,40,0.00,,,-99.99,228.000000,,2013-01-06 21:43:00,
2013-01-06 15:53:00,26.0,5.0,-100.00,SSW,206,4.0,8.0,40,0.00,,,-99.99,228.000000,,2013-01-06 21:53:00,
2013-01-06 16:02:00,26.0,5.0,-100.00,SSW,206,4.0,8.0,40,0.00,,,-99.99,228.000000,,2013-01-06 22:02:00,
2013-01-06 16:12:00,26.0,5.0,-100.00,SSW,206,4.0,8.0,40,0.00,,,-99.99,228.000000,,2013-01-06 22:12:00,
2013-01-06 16:33:00,22.0,5.0,-100.00,SSW,206,2.0,6.0,48,0.00,,,0.00,90.000000,,2013-01-06 22:33:00,
2013-01-06 16:43:00,22.0,5.0,-100.00,SSW,206,2.0,6.0,48,0.00,,,0.00,90.000000,,2013-01-06 22:43:00,
2013-01-06 16:53:00,22.0,5.0,-100.00,SSW,206,2.0,6.0,48,0.00,,,0.00,90.000000,,2013-01-06 22:53:00,
2013-01-06 17:02:00,22.0,5.0,-100.00,SSW,206,2.0,6.0,48,0.00,,,0.00,90.000000,,2013-01-06 23:02:00,
2013-01-06 17:12:00,22.0,5.0,-100.00,SSW,206,2.0,6.0,48,0.00,,,0.00,90.000000,,2013-01-06 23:12:00,
2013-01-06 17:33:00,17.0,4.0,-100.00,SSW,198,0.0,5.0,56,0.00,,,0.00,9.000000,,2013-01-06 23:33:00,
2013-01-06 17:43:00,17.0,4.0,-100.00,SSW,198,0.0,5.0,56,0.00,,,0.00,9.000000,,2013-01-06 23:43:00,
2013-01-06 17:53:00,17.0,4.0,-100.00,SSW,198,0.0,5.0,56,0.00,,,0.00,9.000000,,2013-01-06 23:53:00,
2013-01-06 18:02:00,17.0,4.0,-100.00,SSW,198,0.0,5.0,56,0.00,,,0.00,9.000000,,2013-01-07 00:02:00,
2013-01-06 18:12:00,17.0,4.0,-100.00,SSW,198,0.0,5.0,56,0.00,,,0.00,9.000000,,2013-01-07 00:12:00,
2013-01-06 18:33:00,12.0,4.0,-100.00,SSE,164,1.0,4.0,69,0.00,,,-99.99,0.000000,,2013-01-07 00:33:00,
2013-01-06 18:43:00,12.0,4.0,-100.00,SSE,164,1.0,4.0,69,0.00,,,-99.99,0.000000,,2013-01-07 00:43:00,
2013-01-06 18:53:00,12.0,4.0,-100.00,SSE,164,1.0,4.0,69,0.00,,,-99.99,0.000000,,2013-01-07 00:53:00,
2013-01-06 19:02:00,12.0,4.0,-100.00,SSE,164,1.0,4.0,69,0.00,,,-99.99,0.000000,,2013-01-07 01:02:00,
2013-01-06 19:12:00,12.0,4.0,-100.00,SSE,164,1.0,4.0,69,0.00,,,-99.99,0.000000,,2013-01-07 01:12:00,
2013-01-06 19:43:00,7.0,2.0,-100.00,SE,144,0.0,3.0,78,0.00,,,0.00,0.000000,,2013-01-07 01:43:00,
2013-01-06 19:53:00,7.0,2.0,-100.00,SE,144,0.0,3.0,78,0.00,,,0.00,0.000000,,2013-01-07 01:53:00,
2013-01-06 20:02:00,7.0,2.0,-100.00,SE,144,0.0,3.0,78,0.00,,,0.00,0.000000,,2013-01-07 02:02:00,
2013-01-06 20:12:00,7.0,2.0,-100.00,SE,144,0.0,3.0,78,0.00,,,0.00,0.000000,,2013-01-07 02:12:00,
2013-01-06 20:43:00,6.0,1.0,-100.00,South,169,0.0,4.0,80,0.00,,,0.00,0.000000,,2013-01-07 02:43:00,
2013-01-06 20:53:00,6.0,1.0,-100.00,South,169,0.0,4.0,80,0.00,,,0.00,0.000000,,2013-01-07 02:53:00,
2013-01-06 21:02:00,6.0,1.0,-100.00,South,169,0.0,4.0,80,0.00,,,0.00,0.000000,,2013-01-07 03:02:00,
2013-01-06 21:12:00,6.0,1.0,-100.00,South,169,0.0,4.0,80,0.00,,,0.00,0.000000,,2013-01-07 03:12:00,
2013-01-06 21:33:00,11.0,5.0,-100.00,SSE,147,2.0,5.0,75,0.00,,,0.00,0.000000,,2013-01-07 03:33:00,
2013-01-06 21:43:00,11.0,5.0,-100.00,SSE,147,2.0,5.0,75,0.00,,,0.00,0.000000,,2013-01-07 03:43:00,
2013-01-06 21:53:00,11.0,5.0,-100.00,SSE,147,2.0,5.0,75,0.00,,,0.00,0.000000,,2013-01-07 03:53:00,
2013-01-06 22:02:00,11.0,5.0,-100.00,SSE,147,2.0,5.0,75,0.00,,,0.00,0.000000,,2013-01-07 04:02:00,
2013-01-06 22:12:00,11.0,5.0,-100.00,SSE,147,2.0,5.0,75,0.00,,,0.00,0.000000,,2013-01-07 04:12:00,
2013-01-06 22:42:00,10.0,5.0,-100.00,SSE,147,1.0,5.0,78,0.00,,,0.00,0.000000,,2013-01-07 04:42:00,
2013-01-06 22:52:00,10.0,5.0,-100.00,SSE,147,1.0,5.0,78,0.00,,,0.00,0.000000,,2013-01-07 04:52:00,
2013-01-06 23:03:00,10.0,5.0,-100.00,SSE,147,1.0,5.0,78,0.00,,,0.00,0.000000,,2013-01-07 05:03:00,
2013-01-06 23:12:00,10.0,5.0,-100.00,SSE,147,1.0,5.0,78,0.00,,,0.00,0.000000,,2013-01-07 05:12:00,
2013-01-06 23:43:00,11.0,5.0,-100.00,SE,124,4.0,6.0,77,0.00,,,0.00,0.000000,,2013-01-07 05:43:00,
2013-01-06 23:53:00,11.0,5.0,-100.00,SE,124,4.0,6.0,77,0.00,,,0.00,0.000000,,2013-01-07 05:53:00,